Guthrie, OK

9:54 PM CDT on July 27, 2017 (GMT -0500)
Guthrie Municipal

Weather History for KGOK - January, 2013

Change the Weather History Date:

Thursday, January 10, 2013

  Actual Average Record
Temperature  
Mean Temperature 52 °F -  
Max Temperature 59 °F 43 °F 77 °F (1990)
Min Temperature 46 °F 22 °F -8 °F (1977)
Degree Days  
Heating Degree Days 12    
Growing Degree Days 2 (Base 50)    
Moisture  
Dew Point 49 °F    
Average Humidity 90    
Maximum Humidity 96    
Minimum Humidity 81    
Precipitation  
Precipitation 0.25 in - - ()
Sea Level Pressure  
Sea Level Pressure 29.90 in    
Wind  
Wind Speed 7 mph (SSE)    
Max Wind Speed 14 mph    
Max Gust Speed 22 mph    
Visibility 5 miles    
Events Rain    
Averages and records for this station are not official NWS values.
T = Trace of Precipitation, MM = Missing Value Source: NWS Daily Summary

Daily Weather History Graph

Daily Weather History Graph

Search for Another Location

Airport or City:

Trip Planner

Search our weather history database for the weather conditions in past years. The results will help you decide how hot, cold, wet, or windy it might be!

Date:

Astronomy

Jan. 10, 2013 Rise Set
Actual Time 7:40 AM CST 5:34 PM CST
Civil Twilight 7:12 AM CST 6:02 PM CST
Nautical Twilight 6:40 AM CST 6:34 PM CST
Astronomical Twilight 6:09 AM CST 7:05 PM CST
Moon 6:21 AM CST (1/10) 4:43 PM CST (1/10)
Length of Visible Light 10h 50m
Length of Day
9h 54m
Waning Crescent, 2% of the Moon is Illuminated
Jan 10
Waning Crescent
Jan 11
New
Jan 18
First Quarter
Jan 26
Full
Feb 3
Last Quarter

Hourly Weather History & Observations

Time (CST) Temp. Windchill Dew Point Humidity Pressure Visibility Wind Dir Wind Speed Gust Speed Precip Events Conditions
12:53 AM 46.9 °F - 44.1 °F 90% 30.12 in 3.0 mi SE 4.6 mph - 0.09 in Rain Rain
12:58 AM 46.4 °F 45.2 °F 44.6 °F 93% 30.11 in 2.5 mi Variable 3.5 mph - 0.02 in Rain Rain
1:26 AM 46.4 °F 42.4 °F 44.6 °F 93% 30.09 in 4.0 mi East 8.1 mph - 0.04 in Rain Light Rain
1:39 AM 46.4 °F 41.5 °F 44.6 °F 93% 30.09 in 2.5 mi East 10.4 mph - 0.05 in Rain Light Rain
1:53 AM 46.9 °F - 45.0 °F 93% 30.08 in 5.0 mi East 11.5 mph - 0.05 in   Overcast
2:53 AM 48.0 °F - 46.0 °F 93% 30.04 in 4.0 mi East 12.7 mph 19.6 mph 0.01 in   Overcast
3:12 AM 48.2 °F - 46.4 °F 93% 30.02 in 4.0 mi East 11.5 mph - N/A   Overcast
3:53 AM 48.9 °F - 46.9 °F 93% 30.00 in 2.0 mi East 12.7 mph - N/A   Overcast
4:11 AM 48.2 °F - 46.4 °F 93% 29.98 in 1.2 mi East 8.1 mph - N/A   Overcast
4:53 AM 48.9 °F - 46.9 °F 93% 29.97 in 1.0 mi East 9.2 mph - N/A   Overcast
5:53 AM 50.0 °F - 48.0 °F 93% 29.95 in 1.5 mi East 6.9 mph - 0.02 in Rain Light Rain
6:05 AM 50.0 °F - 48.2 °F 94% 29.95 in 3.0 mi East 5.8 mph - 0.02 in Rain Light Rain
6:39 AM 50.0 °F - 48.2 °F 94% 29.94 in 2.5 mi East 8.1 mph - 0.03 in   Overcast
6:53 AM 50.0 °F - 48.9 °F 96% 29.95 in 2.0 mi East 4.6 mph - 0.03 in   Overcast
7:20 AM 50.0 °F - 48.2 °F 94% 29.95 in 4.0 mi East 5.8 mph - 0.00 in   Overcast
7:42 AM 51.8 °F - 48.2 °F 88% 29.95 in 3.0 mi ESE 3.5 mph - 0.01 in Rain Light Rain
7:53 AM 50.0 °F - 48.9 °F 96% 29.95 in 2.5 mi ESE 4.6 mph - 0.01 in   Overcast
8:06 AM 51.8 °F - 48.2 °F 88% 29.94 in 1.8 mi Calm Calm - 0.01 in Rain Light Rain
8:13 AM 51.8 °F - 48.2 °F 88% 29.94 in 3.0 mi Variable 3.5 mph - 0.01 in Rain Light Rain
8:49 AM 51.8 °F - 48.2 °F 88% 29.93 in 2.5 mi East 5.8 mph - 0.01 in   Overcast
8:53 AM 51.1 °F - 48.9 °F 92% 29.94 in 2.5 mi East 4.6 mph - 0.02 in   Overcast
9:09 AM 51.8 °F - 48.2 °F 88% 29.92 in 1.0 mi East 6.9 mph - N/A   Overcast
9:53 AM 51.1 °F - 50.0 °F 96% 29.92 in 1.8 mi East 6.9 mph - N/A   Overcast
10:15 AM 51.8 °F - 50.0 °F 94% 29.90 in 2.0 mi East 5.8 mph - N/A   Overcast
10:45 AM 51.8 °F - 50.0 °F 94% 29.90 in 4.0 mi East 4.6 mph - N/A   Overcast
10:53 AM 52.0 °F - 50.0 °F 93% 29.91 in 5.0 mi ESE 6.9 mph - N/A   Overcast
11:15 AM 53.6 °F - 51.8 °F 94% 29.90 in 1.8 mi East 4.6 mph - N/A   Overcast
11:41 AM 53.6 °F - 51.8 °F 94% 29.88 in 2.5 mi ESE 5.8 mph - N/A   Overcast
11:48 AM 53.6 °F - 51.8 °F 94% 29.88 in 4.0 mi ESE 5.8 mph - N/A   Overcast
11:53 AM 53.1 °F - 51.1 °F 93% 29.88 in 4.0 mi SE 6.9 mph - N/A   Overcast
12:24 PM 53.6 °F - 51.8 °F 94% 29.84 in 7.0 mi SSE 5.8 mph - N/A   Overcast
12:42 PM 53.6 °F - 51.8 °F 94% 29.83 in 1.8 mi SE 6.9 mph - N/A   Overcast
12:53 PM 54.0 °F - 52.0 °F 93% 29.83 in 2.0 mi SE 6.9 mph - N/A   Overcast
1:06 PM 55.4 °F - 51.8 °F 88% 29.83 in 4.0 mi SSE 8.1 mph - N/A   Overcast
1:53 PM 55.9 °F - 53.1 °F 90% 29.81 in 9.0 mi SSW 8.1 mph - N/A   Mostly Cloudy
2:21 PM 57.2 °F - 53.6 °F 88% 29.80 in 10.0 mi SSW 5.8 mph - N/A   Overcast
2:53 PM 57.0 °F - 53.1 °F 87% 29.80 in 10.0 mi SW 5.8 mph - N/A   Overcast
3:07 PM 57.2 °F - 53.6 °F 88% 29.79 in 10.0 mi SW 4.6 mph - N/A   Overcast
3:20 PM 59.0 °F - 53.6 °F 82% 29.80 in 10.0 mi SW 8.1 mph - N/A   Overcast
3:53 PM 57.9 °F - 52.0 °F 81% 29.80 in 10.0 mi WSW 4.6 mph - N/A   Scattered Clouds
4:26 PM 59.0 °F - 53.6 °F 82% 29.80 in 10.0 mi WSW 6.9 mph - N/A   Mostly Cloudy
4:53 PM 57.0 °F - 52.0 °F 83% 29.81 in 10.0 mi SSW 6.9 mph - N/A   Overcast
5:40 PM 55.4 °F - 51.8 °F 88% 29.82 in 7.0 mi SW 9.2 mph - 0.00 in Rain Light Rain
5:53 PM 55.0 °F - 51.1 °F 86% 29.82 in 4.0 mi SW 8.1 mph - 0.01 in Rain Light Rain
6:12 PM 53.6 °F - 51.8 °F 94% 29.82 in 7.0 mi SSW 8.1 mph - 0.01 in Rain Light Rain
6:43 PM 53.6 °F - 50.0 °F 88% 29.82 in 10.0 mi SSW 5.8 mph - 0.01 in   Mostly Cloudy
6:53 PM 54.0 °F - 50.0 °F 86% 29.83 in 9.0 mi SSW 9.2 mph - 0.01 in   Mostly Cloudy
7:02 PM 53.6 °F - 50.0 °F 88% 29.83 in 9.0 mi SSW 8.1 mph - N/A   Overcast
7:20 PM 53.6 °F - 50.0 °F 88% 29.82 in 9.0 mi SW 8.1 mph - N/A   Overcast
7:53 PM 53.1 °F - 50.0 °F 89% 29.82 in 7.0 mi SW 3.5 mph - N/A   Overcast
8:53 PM 53.1 °F - 48.9 °F 86% 29.82 in 10.0 mi South 5.8 mph - N/A   Overcast
9:53 PM 52.0 °F - 48.0 °F 86% 29.83 in 10.0 mi SSW 13.8 mph 21.9 mph N/A   Overcast
10:34 PM 51.8 °F - 48.2 °F 88% 29.82 in 10.0 mi SSW 11.5 mph 19.6 mph N/A   Overcast
10:53 PM 52.0 °F - 46.9 °F 83% 29.84 in 10.0 mi SSW 10.4 mph - N/A   Overcast
11:10 PM 51.8 °F - 46.4 °F 82% 29.84 in 10.0 mi SW 10.4 mph - N/A   Scattered Clouds
11:53 PM 50.0 °F - 46.0 °F 86% 29.83 in 10.0 mi SSW 11.5 mph - N/A   Clear